Time,TemperatureF,DewpointF,PressureIn,WindDirection,WindDirectionDegrees,WindSpeedMPH,WindSpeedGustMPH,Humidity,HourlyPrecipIn,Conditions,Clouds,dailyrainin,SoftwareType,DateUTC
2013-05-02 00:02:00,53.0,-99.9,30.09,ESE,110,4.0,-999.0,-999,-99.99,,,-99.99,,2013-05-02 07:02:00,
2013-05-02 00:52:00,53.0,-99.9,30.09,ESE,110,4.0,-999.0,-999,-99.99,,,-99.99,,2013-05-02 07:52:00,
2013-05-02 01:02:00,53.0,-99.9,30.09,East,80,7.0,-999.0,-999,-99.99,,,-99.99,,2013-05-02 08:02:00,
2013-05-02 01:52:00,53.0,-99.9,30.09,East,80,7.0,-999.0,-999,-99.99,,,-99.99,,2013-05-02 08:52:00,
2013-05-02 02:02:00,53.0,-99.9,30.08,ENE,70,7.0,-999.0,-999,-99.99,,,-99.99,,2013-05-02 09:02:00,
2013-05-02 02:52:00,53.0,-99.9,30.08,ENE,70,7.0,-999.0,-999,-99.99,,,-99.99,,2013-05-02 09:52:00,
2013-05-02 03:02:00,53.0,-99.9,30.07,East,100,11.0,-999.0,-999,-99.99,,,-99.99,,2013-05-02 10:02:00,
2013-05-02 03:53:00,53.0,-99.9,30.07,East,100,11.0,-999.0,-999,-99.99,,,-99.99,,2013-05-02 10:53:00,
2013-05-02 04:52:00,53.0,-99.9,30.07,ESE,110,13.0,-999.0,-999,-99.99,,,-99.99,,2013-05-02 11:52:00,
2013-05-02 05:01:00,53.0,-99.9,30.07,ESE,110,13.0,-999.0,-999,-99.99,,,-99.99,,2013-05-02 12:01:00,
2013-05-02 05:52:00,53.0,-99.9,30.07,East,100,11.0,-999.0,-999,-99.99,,,-99.99,,2013-05-02 12:52:00,
2013-05-02 06:01:00,53.0,-99.9,30.07,East,100,11.0,-999.0,-999,-99.99,,,-99.99,,2013-05-02 13:01:00,
2013-05-02 06:02:00,53.0,-99.9,30.08,East,90,9.0,-999.0,-999,-99.99,,,-99.99,,2013-05-02 13:02:00,
2013-05-02 06:52:00,53.0,-99.9,30.08,East,90,9.0,-999.0,-999,-99.99,,,-99.99,,2013-05-02 13:52:00,
2013-05-02 07:02:00,54.0,-99.9,30.09,East,90,11.0,-999.0,-999,-99.99,,,-99.99,,2013-05-02 14:02:00,
2013-05-02 07:43:00,54.0,-99.9,30.09,East,90,11.0,-999.0,-999,-99.99,,,-99.99,,2013-05-02 14:43:00,
2013-05-02 07:52:00,54.0,-99.9,30.09,East,90,11.0,-999.0,-999,-99.99,,,-99.99,,2013-05-02 14:52:00,
2013-05-02 08:02:00,54.0,-99.9,30.10,East,100,11.0,-999.0,-999,-99.99,,,-99.99,,2013-05-02 15:02:00,
2013-05-02 09:02:00,54.0,-99.9,30.11,ENE,70,7.0,-999.0,-999,-99.99,,,-99.99,,2013-05-02 16:02:00,
2013-05-02 09:52:00,54.0,-99.9,30.11,ENE,70,7.0,-999.0,-999,-99.99,,,-99.99,,2013-05-02 16:52:00,
2013-05-02 10:02:00,56.0,-99.9,30.13,North,0,0.0,-999.0,-999,-99.99,,,-99.99,,2013-05-02 17:02:00,
2013-05-02 10:52:00,56.0,-99.9,30.13,North,0,0.0,-999.0,-999,-99.99,,,-99.99,,2013-05-02 17:52:00,
2013-05-02 13:42:00,55.0,-99.9,30.13,SW,220,13.0,-999.0,-999,-99.99,,,-99.99,,2013-05-02 20:42:00,
2013-05-02 14:02:00,55.0,-99.9,30.14,WSW,240,9.0,-999.0,-999,-99.99,,,-99.99,,2013-05-02 21:02:00,
2013-05-02 14:53:00,55.0,-99.9,30.14,WSW,240,9.0,-999.0,-999,-99.99,,,-99.99,,2013-05-02 21:53:00,
2013-05-02 15:02:00,55.0,-99.9,30.13,West,280,9.0,-999.0,-999,-99.99,,,-99.99,,2013-05-02 22:02:00,
2013-05-02 15:53:00,55.0,-99.9,30.13,West,280,9.0,-999.0,-999,-99.99,,,-99.99,,2013-05-02 22:53:00,
2013-05-02 16:52:00,56.0,-99.9,30.12,West,280,9.0,-999.0,-999,-99.99,,,-99.99,,2013-05-02 23:52:00,
2013-05-02 17:01:00,56.0,-99.9,30.12,West,280,9.0,-999.0,-999,-99.99,,,-99.99,,2013-05-03 00:01:00,
2013-05-02 17:02:00,56.0,-99.9,30.13,WNW,300,9.0,-999.0,-999,-99.99,,,-99.99,,2013-05-03 00:02:00,
2013-05-02 17:52:00,56.0,-99.9,30.13,WNW,300,9.0,-999.0,-999,-99.99,,,-99.99,,2013-05-03 00:52:00,
2013-05-02 18:02:00,56.0,-99.9,30.11,West,260,7.0,-999.0,-999,-99.99,,,-99.99,,2013-05-03 01:02:00,
2013-05-02 18:52:00,56.0,-99.9,30.11,West,260,7.0,-999.0,-999,-99.99,,,-99.99,,2013-05-03 01:52:00,
2013-05-02 19:52:00,55.0,-99.9,30.09,SW,230,9.0,-999.0,-999,-99.99,,,-99.99,,2013-05-03 02:52:00,
2013-05-02 20:01:00,55.0,-99.9,30.09,SW,230,9.0,-999.0,-999,-99.99,,,-99.99,,2013-05-03 03:01:00,
2013-05-02 20:02:00,55.0,-99.9,30.10,North,360,4.0,-999.0,-999,-99.99,,,-99.99,,2013-05-03 03:02:00,
2013-05-02 20:53:00,55.0,-99.9,30.10,North,360,4.0,-999.0,-999,-99.99,,,-99.99,,2013-05-03 03:53:00,
2013-05-02 21:02:00,54.0,-99.9,30.11,North,10,7.0,-999.0,-999,-99.99,,,-99.99,,2013-05-03 04:02:00,
2013-05-02 21:53:00,54.0,-99.9,30.11,North,10,7.0,-999.0,-999,-99.99,,,-99.99,,2013-05-03 04:53:00,
2013-05-02 23:02:00,56.0,-99.9,30.10,West,260,4.0,-999.0,-999,-99.99,,,-99.99,,2013-05-03 06:02:00,
2013-05-02 23:52:00,56.0,-99.9,30.10,West,260,4.0,-999.0,-999,-99.99,,,-99.99,,2013-05-03 06:52:00,